Tracking 35331 objects as of 16-Sep-2026
HD Live streaming from Space Station
objects crossing your sky now

COSMOS 1747 DEB


COSMOS 1747 DEB is no longer on orbit


NORAD ID: 16796
Int'l Code: 1986-041F
Launch date: May 29, 1986
Source: Commonwealth of Independent States (former USSR) (CIS)
Launch site: TYURATAM MISSILE AND SPACE COMPLEX (TTMTR)
Decay date: 1986-06-15

Note: This is SATELLITE DEBRIS
Your satellite tracking list
Your tracking list is empty




NASA's NSSDC Master Catalog

Two Line Element Set (TLE):
1 16796U 86041F   86166.57781562  .42454880 +17306-4 +30331-3 0  9995
2 16796 070.3469 019.2498 0008745 248.9624 111.8230 16.52934665002771
Source of the keplerian elements: AFSPC